Theta_e
319 317 315 316 317 317 318 317 317 317 316 317 317 318 318 318 318 318 318 316 315 315 315 317 320 318 310 307 307 306 306 306 306 309 313 312 307 308 309 309 311 309 311 313 311 312 312 311 312 311 315 316 315 315 313 317 323 330 337 327 321 324 322 320 317 315 320 320 314 312 314 317 315 312 311 310 316 317 316 323 321 321 323 322 323 321 322 329
318 316 315 315 317 318 318 316 317 316 316 317 317 318 317 318 318 317 317 316 314 314 314 312 312 311 307 307 307 306 306 307 309 312 312 309 308 309 309 310 312 312 312 312 311 311 313 312 311 313 318 318 313 315 316 314 321 335 333 319 326 333 321 318 317 313 314 315 314 313 313 314 315 314 312 312 317 316 317 318 318 323 325 325 324 322 326 330
318 316 315 316 318 317 317 316 316 316 317 317 317 317 317 317 317 317 316 314 312 312 313 311 308 308 307 307 306 307 307 308 311 312 310 308 309 309 310 312 314 315 313 312 311 310 312 312 310 314 319 318 315 316 319 317 318 327 326 319 331 334 320 315 316 315 314 313 315 313 311 312 313 313 311 315 317 315 319 319 318 323 329 332 326 324 328 330
317 316 315 317 318 317 316 315 316 317 317 317 317 316 316 316 316 316 315 312 310 310 311 311 308 306 307 306 307 308 310 310 310 311 310 309 309 308 310 313 315 316 313 311 311 310 312 311 310 316 319 317 317 317 317 318 315 317 322 324 325 321 317 315 315 317 315 312 315 314 312 312 311 311 312 316 317 317 319 318 320 323 334 336 325 325 329 329
317 315 315 317 318 316 315 315 316 317 316 316 316 316 316 316 316 315 314 311 309 308 310 310 307 306 306 306 307 309 311 311 311 312 312 310 309 308 311 314 316 314 312 311 312 312 312 310 311 318 319 316 316 317 315 314 314 314 316 318 317 315 315 314 314 315 314 312 314 314 313 312 311 311 315 318 318 319 318 317 320 320 334 337 327 327 329 329
317 315 316 317 316 315 315 316 316 316 316 316 315 316 316 315 315 315 313 310 308 308 309 309 307 306 306 306 308 310 311 310 312 315 314 313 311 311 313 314 314 312 311 313 312 312 313 311 312 316 318 316 315 316 314 311 312 317 315 312 314 315 313 313 313 312 311 313 315 315 312 311 312 312 314 316 317 318 314 313 313 315 325 329 326 327 329 329
317 316 317 317 315 315 316 316 316 316 315 315 315 315 314 314 315 314 312 309 308 308 308 308 307 306 306 307 309 311 313 312 312 315 316 315 313 313 314 312 312 312 312 313 311 313 315 313 314 316 318 316 314 313 313 312 314 320 318 313 313 313 312 312 312 310 310 314 314 312 311 312 315 314 310 313 317 315 310 306 306 314 321 324 325 327 328 329
317 317 317 316 315 315 316 316 316 316 315 314 314 314 314 314 314 313 311 308 308 308 308 307 307 307 306 308 312 314 314 314 313 315 316 315 315 313 313 312 312 312 312 312 311 313 314 313 313 314 316 314 313 314 312 312 315 320 318 314 313 311 312 311 311 312 311 313 312 311 313 314 313 311 310 315 318 314 312 311 314 319 322 324 326 327 327 327
317 317 316 316 314 314 315 315 315 316 314 314 314 313 314 314 314 313 310 309 308 308 307 307 308 307 307 309 312 312 312 313 313 315 315 314 313 312 312 312 312 312 311 311 311 311 312 314 314 313 315 313 312 314 313 313 315 317 317 315 314 313 313 312 312 314 314 312 311 313 315 313 310 309 314 318 316 316 321 329 328 325 327 325 326 326 325 326
317 317 316 316 314 314 314 314 314 315 314 314 314 313 313 314 314 312 310 309 308 308 308 308 308 308 308 309 309 308 311 314 313 314 314 313 312 311 312 312 312 312 311 310 310 310 311 313 312 312 313 313 312 313 312 312 313 315 317 316 315 314 313 314 314 314 315 314 312 315 315 313 311 310 317 316 311 313 328 340 330 330 335 324 323 325 324 324
317 317 316 315 314 314 313 313 314 314 314 314 313 313 313 313 313 311 310 309 308 308 308 308 309 309 309 310 308 307 311 315 314 314 313 311 311 311 312 312 312 311 311 311 310 310 312 310 308 310 312 312 313 313 311 311 311 313 317 317 316 315 314 314 315 315 316 313 312 315 314 313 312 313 319 314 309 310 325 343 334 333 333 321 322 324 323 324
317 316 316 315 314 314 313 313 313 313 314 313 313 313 313 313 312 311 310 308 307 308 308 308 309 309 310 310 309 308 311 316 315 314 312 311 311 312 312 313 312 312 311 311 311 311 312 310 309 312 313 312 313 314 312 311 312 313 315 316 316 316 315 313 314 315 315 313 313 316 312 314 315 315 318 313 311 312 320 335 336 332 327 322 323 322 322 323
317 316 316 316 314 314 313 313 313 313 313 313 312 312 312 312 310 310 309 308 308 307 308 309 308 309 310 310 310 308 311 315 315 314 313 311 311 312 313 313 313 312 312 312 312 312 312 311 311 313 312 315 315 311 311 313 313 313 314 318 316 314 315 313 313 315 314 313 313 313 313 319 320 316 313 311 311 314 318 326 328 327 323 321 321 321 322 320
317 316 316 316 315 314 313 313 313 313 313 312 312 311 311 310 309 310 308 307 307 307 309 309 309 309 308 309 310 309 310 313 314 314 312 311 312 313 313 313 313 313 313 313 312 312 313 311 310 311 311 315 313 309 315 318 317 314 311 318 317 312 315 314 315 317 313 311 311 309 312 319 321 315 310 309 311 314 318 322 321 323 321 319 319 319 320 318
316 316 316 316 315 314 313 313 313 313 313 312 311 310 310 309 309 309 308 307 307 308 309 310 310 309 307 309 309 310 311 312 314 314 312 312 312 313 313 313 313 313 313 313 313 313 313 311 312 314 311 311 311 313 320 321 324 321 311 315 315 310 316 317 316 318 314 312 312 309 312 318 317 313 309 309 313 314 317 321 318 319 319 318 317 315 317 315
316 316 316 316 315 314 314 312 312 313 313 312 311 310 309 308 308 308 308 307 307 309 310 311 312 309 306 309 310 312 313 312 313 312 312 312 312 313 312 312 312 312 313 312 313 313 311 313 314 313 312 312 313 318 320 318 325 325 316 319 318 312 315 314 315 316 315 314 313 311 314 319 316 313 311 310 313 314 316 321 318 317 316 315 314 313 313 312
316 316 316 316 315 314 313 312 312 312 312 312 311 310 308 308 308 307 307 307 309 311 309 312 313 308 305 308 311 314 313 312 313 312 312 312 313 313 311 312 311 310 312 311 312 312 312 314 311 311 315 315 315 318 317 315 319 320 318 321 319 316 315 314 314 314 313 314 314 313 314 318 318 316 315 312 313 314 316 319 318 316 314 313 312 311 311 311
316 316 316 316 315 314 313 313 312 312 312 311 310 309 308 309 308 308 309 310 311 310 308 310 310 309 307 308 312 314 312 312 313 312 312 313 312 312 312 312 309 309 312 312 312 312 314 315 315 317 318 314 314 316 315 315 315 315 317 317 316 315 314 316 318 314 312 313 315 316 315 317 318 316 315 311 310 314 317 317 316 316 317 315 313 312 311 310
316 316 316 316 315 314 314 313 312 312 312 310 309 310 310 310 310 310 311 311 310 307 308 309 308 310 310 309 312 313 311 312 313 312 312 313 312 311 312 310 311 313 314 314 313 314 319 318 316 318 316 314 314 314 316 320 318 317 318 320 321 320 317 319 320 313 312 314 316 317 317 319 319 317 318 312 308 312 315 315 315 315 315 314 314 313 311 311
317 316 316 316 315 314 314 313 312 312 310 309 310 310 310 311 312 312 312 313 311 307 310 311 308 310 311 310 312 312 312 311 312 312 312 312 311 311 311 309 314 315 314 319 315 313 319 319 315 316 314 314 314 313 317 320 317 317 319 323 323 320 318 317 316 313 312 314 317 319 320 319 318 317 317 312 309 312 315 316 316 315 313 313 314 313 312 312
317 316 316 316 315 314 314 313 312 312 310 309 310 310 310 311 311 312 312 313 310 305 309 311 308 310 311 310 311 311 311 312 311 312 312 311 311 312 312 311 314 314 313 319 317 311 315 317 316 316 314 313 313 314 317 316 315 316 318 319 318 318 319 314 313 315 312 313 317 319 319 317 318 317 315 312 311 314 316 318 318 317 314 312 312 313 312 311
316 316 316 315 315 314 313 313 312 311 310 309 310 310 311 311 309 310 310 310 308 305 308 310 308 311 311 310 311 310 312 314 312 313 312 310 311 312 313 313 314 315 313 315 316 314 315 317 316 315 313 311 313 316 319 318 318 320 319 318 317 320 320 313 312 314 312 313 317 319 320 319 320 318 316 314 313 314 314 314 315 314 314 312 310 311 310 310
317 316 315 315 315 314 313 312 312 311 309 309 309 309 311 310 308 308 308 310 309 306 309 311 310 313 314 311 311 311 312 313 313 313 312 311 312 312 313 313 314 315 313 313 316 316 318 319 315 313 311 311 313 315 318 319 319 321 319 318 318 318 320 317 314 313 312 312 317 320 320 320 319 317 318 315 310 311 312 313 312 310 312 311 309 310 310 310
317 316 315 315 314 314 313 312 312 311 310 309 309 310 312 312 309 308 309 310 309 307 309 309 311 317 317 312 311 312 312 312 312 312 311 312 312 310 312 313 314 314 312 313 315 315 317 313 309 311 311 313 314 313 317 318 316 316 318 323 323 319 321 320 314 313 313 311 314 317 314 322 327 322 321 318 310 311 313 312 314 313 310 309 310 311 310 310
317 316 316 315 314 313 312 311 311 310 310 308 309 310 311 312 309 308 310 309 308 308 307 307 312 316 315 311 311 313 312 312 313 311 310 311 311 310 310 310 312 314 313 313 313 314 314 308 306 311 311 313 313 312 318 320 317 314 317 328 329 322 322 319 315 316 317 314 312 311 311 327 336 329 325 322 319 320 315 312 317 317 312 310 312 313 312 313
317 316 316 315 314 313 311 311 310 309 310 308 309 310 311 312 309 309 312 311 310 309 307 307 310 312 311 312 313 313 313 313 311 310 310 309 309 309 309 309 311 312 312 312 313 314 312 308 309 312 312 315 314 313 315 318 319 314 315 323 325 323 324 321 317 319 320 314 309 310 315 322 327 326 326 323 324 327 318 317 321 315 312 315 315 315 318 317
317 316 316 314 313 312 311 310 309 309 310 309 309 310 311 312 310 308 311 313 312 310 308 307 308 310 311 311 312 313 315 314 310 309 310 309 308 309 310 310 310 311 311 312 315 313 310 310 312 312 313 315 316 314 313 317 319 313 314 318 322 324 326 322 321 323 322 313 313 319 320 315 316 319 321 318 319 324 321 321 322 315 314 318 316 316 316 312
317 316 315 314 312 312 311 309 308 308 310 310 309 309 311 313 310 308 310 312 311 309 308 307 307 310 312 310 311 313 313 314 312 311 308 308 308 309 312 313 313 314 311 311 314 312 311 315 315 313 314 315 316 316 314 318 322 316 311 315 318 322 326 328 328 327 319 309 316 324 314 310 319 323 321 315 314 319 323 321 318 315 317 319 316 315 315 312
317 315 315 313 312 312 311 310 309 308 309 309 308 309 312 312 308 308 310 309 309 309 307 308 308 311 312 310 311 313 312 313 314 312 308 308 308 309 310 311 314 317 312 313 318 315 312 313 313 314 314 313 317 316 315 322 324 314 309 313 316 320 325 327 327 324 317 312 321 325 313 310 319 327 324 313 312 319 320 317 316 318 321 319 319 321 323 323
316 315 314 312 311 310 310 310 309 309 310 309 309 310 312 311 308 308 308 308 310 310 306 307 310 312 314 311 311 313 313 313 313 312 311 311 311 310 309 309 314 320 318 321 323 317 312 310 311 313 313 313 314 314 314 318 316 311 315 319 317 323 327 326 327 322 314 317 323 319 315 312 312 324 324 313 313 319 317 316 318 324 326 321 321 325 328 331
315 315 313 312 311 309 309 310 309 309 309 310 310 311 311 311 311 309 307 310 313 310 306 308 310 312 314 312 312 313 314 314 312 312 312 311 311 312 310 309 315 319 320 322 320 316 314 312 312 314 312 313 316 316 312 311 312 316 324 323 317 323 327 327 330 321 312 321 320 313 314 312 310 321 323 316 316 315 315 318 320 326 328 323 322 324 327 332
315 314 312 311 311 310 311 311 310 309 310 312 311 309 308 310 311 309 307 309 311 310 310 310 309 312 313 312 313 314 315 315 312 312 314 313 312 312 311 313 317 316 314 317 318 316 318 316 313 312 312 313 319 321 314 313 318 319 321 322 320 323 320 323 330 321 316 321 314 310 314 312 312 317 317 318 317 313 312 315 318 322 324 325 323 322 328 333
315 314 312 311 311 311 311 311 310 309 311 312 310 309 310 311 310 309 308 308 310 311 311 311 310 312 313 312 313 313 314 314 312 312 314 313 313 311 311 315 319 319 317 319 319 317 318 321 316 313 314 313 316 321 318 317 319 315 316 320 323 323 315 316 322 316 315 318 311 310 313 312 315 315 313 317 313 311 312 311 314 318 319 321 318 319 329 336
314 313 311 310 311 311 311 311 309 309 310 311 309 309 312 312 309 309 308 308 311 311 310 311 312 312 312 312 313 313 313 313 311 312 313 313 313 313 313 313 314 322 323 319 319 317 317 320 318 315 315 313 313 317 320 321 317 313 315 316 319 326 323 320 322 319 319 320 314 310 312 319 320 312 311 315 311 311 313 311 312 315 316 316 313 318 332 340
314 313 311 311 311 311 310 310 310 309 310 311 309 308 311 310 309 310 308 309 312 311 309 311 312 312 313 312 312 312 314 314 311 312 314 313 313 313 313 310 312 321 323 316 316 316 315 316 316 314 312 313 315 314 316 318 316 314 312 311 315 323 326 321 316 318 318 316 316 313 315 324 320 311 311 311 310 313 313 311 312 317 320 317 318 327 337 342
314 312 311 311 311 311 310 310 310 309 311 312 309 309 310 309 310 311 309 310 312 311 310 311 312 313 313 312 312 311 313 316 314 312 314 313 312 312 312 311 313 316 316 315 318 317 314 314 315 314 312 313 316 313 313 316 316 314 312 314 317 317 323 320 309 310 312 312 316 315 316 321 315 312 317 315 314 316 315 313 312 317 321 319 321 328 332 337
313 312 311 310 310 310 310 311 310 309 311 312 309 310 310 308 309 310 309 310 311 311 312 311 311 313 313 312 314 313 314 316 313 313 314 312 313 313 312 312 313 312 313 316 318 318 318 317 315 316 314 311 310 313 315 315 314 315 316 317 314 310 318 320 313 317 318 315 318 316 316 319 315 314 321 319 315 316 318 317 314 316 319 318 322 326 327 331
312 311 311 310 311 310 309 311 311 310 311 310 309 313 312 308 308 311 311 310 310 312 314 313 312 313 313 313 313 312 313 314 312 314 314 312 314 315 312 312 312 311 312 313 312 315 321 318 313 313 316 314 312 315 316 312 310 315 318 314 313 315 318 315 312 320 319 313 321 322 315 312 313 318 323 317 315 319 319 318 317 317 317 317 319 319 323 329
311 311 311 311 310 309 310 311 310 311 312 310 309 313 312 309 310 313 313 310 310 311 312 315 315 313 312 312 312 312 312 313 312 313 313 312 314 314 311 312 313 310 310 313 312 313 318 320 314 312 313 314 315 316 316 316 312 312 311 308 315 323 320 314 313 317 316 313 319 324 320 316 315 318 321 315 317 323 321 318 321 320 315 315 317 320 327 331
311 312 312 310 309 309 310 310 310 312 313 311 309 310 310 307 309 312 311 310 311 309 311 317 316 313 313 312 311 312 313 313 312 312 313 311 311 311 310 311 313 311 309 313 316 314 314 317 316 314 312 314 318 317 316 317 314 313 312 310 314 316 314 314 314 315 318 319 320 319 321 329 325 316 317 316 316 322 323 321 326 325 317 315 319 326 328 328
310 313 312 310 309 309 310 311 312 313 313 311 310 311 311 309 309 310 310 312 312 309 313 318 315 315 316 313 312 313 313 313 312 312 313 311 310 311 310 311 312 312 311 312 315 317 315 314 317 317 315 316 318 315 312 314 314 313 313 313 314 314 315 316 314 313 314 316 321 317 315 327 328 315 314 315 313 317 320 317 321 324 320 319 323 327 326 328
310 313 311 309 309 310 311 313 313 313 313 312 312 313 313 312 310 309 309 312 313 312 313 315 315 316 315 311 312 314 314 314 313 312 314 313 312 313 310 310 312 310 311 312 313 317 319 321 323 322 318 317 315 309 306 311 314 312 313 315 316 314 316 318 318 316 311 308 314 316 313 321 327 315 311 311 310 314 315 313 318 325 322 320 322 326 328 330
309 310 309 309 310 310 312 313 313 313 313 312 311 312 313 314 314 311 309 312 313 312 312 313 314 313 313 314 313 313 313 313 312 313 315 313 311 313 313 311 311 310 311 312 313 314 317 321 322 321 321 319 314 310 308 310 313 313 315 316 316 314 317 323 324 319 314 311 313 313 312 321 331 320 312 312 313 316 317 315 319 323 320 320 324 329 331 331
307 307 308 309 310 311 312 312 313 313 312 311 310 310 311 314 316 313 309 310 314 314 312 312 312 310 314 317 314 312 312 313 313 312 314 313 310 312 314 311 310 311 310 311 313 312 313 317 319 319 321 320 317 315 314 315 315 317 320 316 314 317 318 317 317 313 314 318 317 316 316 319 326 323 316 315 316 318 320 319 320 321 320 324 331 333 332 330
306 307 307 306 307 310 312 311 312 312 312 311 311 311 311 312 313 313 312 312 317 319 313 311 313 314 316 314 311 311 312 314 316 313 311 314 313 312 313 312 311 310 311 315 316 311 313 318 318 317 317 316 317 317 317 318 316 317 321 316 312 316 315 313 316 314 316 318 316 318 318 313 316 318 314 314 315 316 317 317 318 319 322 326 329 332 333 332
305 307 307 305 304 307 308 308 310 312 312 311 311 311 311 310 311 313 314 314 317 319 317 314 313 314 315 312 310 312 312 313 316 314 312 314 315 313 312 312 311 310 315 321 317 314 319 320 315 313 315 313 313 315 317 321 320 317 318 317 313 313 313 318 322 317 316 317 314 316 316 312 314 317 314 315 318 319 318 316 317 318 320 324 324 326 329 328
306 307 307 307 306 306 305 306 309 312 312 311 311 310 310 311 311 311 312 313 315 317 319 316 313 311 313 312 311 313 313 312 313 315 313 313 314 313 310 310 310 311 317 318 314 317 323 318 313 314 315 312 313 319 320 320 320 318 317 316 315 313 313 317 318 315 316 317 314 313 313 312 314 318 318 318 319 321 321 319 320 320 320 320 318 317 319 322
307 307 306 307 308 308 307 306 308 310 311 311 311 310 310 311 311 312 313 313 314 316 317 316 315 313 313 312 312 313 313 312 312 314 313 313 314 313 310 309 309 311 315 312 311 318 319 314 315 316 314 312 316 322 323 318 318 318 318 317 315 314 314 315 314 314 315 315 312 313 315 313 312 316 318 317 317 319 319 317 316 318 318 316 312 313 317 322
305 306 306 306 307 306 307 307 307 309 311 311 310 311 310 310 310 312 314 314 315 317 316 317 319 317 313 312 313 313 313 312 312 313 314 314 315 315 313 312 311 311 313 312 311 314 315 316 316 313 312 313 315 318 320 318 317 318 317 316 314 313 313 314 314 313 313 314 312 314 318 315 312 314 317 315 314 313 313 313 314 315 318 317 315 319 321 322
304 305 306 306 305 303 305 307 307 308 310 310 311 311 310 310 310 310 313 314 315 316 316 317 319 318 313 312 313 313 313 313 313 314 315 313 314 315 315 315 316 312 310 311 311 309 311 318 317 312 312 314 313 314 315 315 316 317 316 314 313 313 313 313 314 313 313 313 312 312 316 315 311 313 314 313 313 312 311 315 317 315 318 320 321 322 322 320
300 301 303 306 306 304 304 306 307 308 309 310 310 311 310 310 310 309 311 313 313 316 318 317 319 319 314 311 313 314 313 314 314 314 314 314 315 316 314 315 317 315 311 312 313 310 311 316 317 314 314 315 314 314 314 312 312 313 314 313 313 313 313 313 313 313 313 313 312 312 314 313 311 313 314 314 315 315 315 317 318 318 319 320 319 318 317 316
298 300 302 305 307 306 305 306 307 308 310 309 309 310 310 310 311 309 310 312 313 316 318 319 319 320 318 315 314 314 313 313 313 313 313 314 315 314 314 316 315 315 314 312 314 315 314 315 318 317 315 315 313 311 313 313 312 312 314 314 313 313 313 313 313 313 312 313 313 313 312 312 313 313 313 315 316 316 316 316 316 317 317 316 314 314 313 313
Wind_Speed
23 21 21 22 20 19 19 18 17 17 17 16 15 15 15 14 13 14 14 15 18 18 18 20 20 19 16 13 12 11 8 7 8 8 10 14 16 15 15 15 12 11 12 9 7 6 2 2 1 2 3 3 3 2 2 3 3 4 4 3 1 3 4 6 8 7 4 4 6 5 6 9 4 3 2 1 5 3 1 2 2 1 1 3 6 5 6 22
23 22 22 23 21 20 19 17 17 17 16 15 15 14 14 14 13 13 14 14 17 17 17 19 20 18 14 13 12 10 6 5 6 10 18 20 17 15 14 14 11 9 10 8 9 9 5 2 3 5 4 2 2 2 2 2 3 4 3 3 3 5 5 6 8 7 2 3 6 5 5 6 6 6 3 2 1 2 2 3 4 3 3 3 4 4 14 23
24 23 23 23 21 20 18 17 18 17 16 15 14 14 14 14 13 13 13 14 17 17 15 16 17 16 15 14 11 7 4 2 4 11 21 21 18 17 14 12 12 9 9 7 9 9 6 6 8 6 4 3 1 2 2 2 1 2 4 3 5 6 4 4 6 7 4 3 8 6 3 2 3 4 3 4 3 1 5 5 1 4 7 1 1 10 17 20
24 24 24 23 21 20 18 18 19 17 15 15 14 14 14 13 12 12 13 14 17 17 15 14 15 16 16 15 10 7 3 3 3 10 18 18 17 18 14 13 12 9 8 7 7 8 7 8 7 5 4 2 3 2 2 1 0 2 4 4 5 3 1 2 5 6 4 3 7 6 5 2 3 2 3 6 5 2 6 8 8 9 8 7 5 10 16 19
25 24 25 23 21 19 19 19 18 16 15 14 14 14 14 14 12 11 13 14 16 17 14 13 14 15 16 14 11 9 6 3 4 7 13 15 14 16 15 12 11 9 7 7 8 9 8 7 6 5 4 2 2 2 1 1 1 2 1 4 4 2 1 1 3 4 3 3 6 7 6 4 2 1 3 9 7 6 7 7 10 10 9 11 10 13 15 16
26 25 25 22 21 20 19 19 17 16 15 14 14 14 15 14 12 11 13 15 16 16 14 13 14 15 15 13 12 10 6 1 2 2 7 12 13 15 15 11 10 9 8 9 10 9 6 5 5 3 3 2 2 2 1 2 2 2 1 0 3 3 1 2 3 3 4 7 8 7 5 4 4 1 2 7 8 6 4 5 7 7 8 11 13 15 12 13
27 26 25 23 22 21 19 19 17 16 15 15 15 14 14 13 11 11 13 15 16 16 14 13 14 15 14 12 11 6 3 4 2 3 3 10 15 16 14 11 9 9 10 11 9 6 5 5 4 4 5 3 3 2 2 1 4 4 2 1 2 3 1 3 2 2 4 7 7 5 4 4 5 4 1 5 10 6 2 3 3 8 11 12 12 13 13 15
27 27 26 24 23 21 19 19 17 16 15 15 15 13 12 11 11 11 13 15 15 15 14 14 14 14 14 12 8 2 3 5 2 0 4 10 14 14 12 10 10 11 12 13 10 7 5 6 6 4 4 1 4 3 2 3 5 4 3 1 3 2 2 3 2 3 4 4 2 6 5 1 4 4 2 7 11 6 2 3 5 9 10 10 10 12 12 13
28 27 26 24 23 22 21 19 17 16 15 15 14 12 11 10 10 10 12 14 14 15 14 15 15 14 15 10 5 2 4 5 3 2 4 10 12 11 11 9 11 12 11 11 10 10 6 4 6 5 4 3 4 4 2 3 1 2 4 2 4 2 5 3 4 5 4 2 2 6 3 3 2 1 3 9 7 3 3 6 6 7 8 8 9 10 11 11
29 28 26 24 23 24 22 21 18 16 15 15 14 12 11 10 9 10 12 13 13 14 14 16 14 15 16 7 4 4 4 4 7 6 6 10 10 10 11 10 11 13 11 8 8 10 6 5 7 5 5 3 4 3 1 3 3 3 6 6 5 2 4 2 4 4 2 2 3 6 3 3 2 2 4 5 3 1 5 7 5 6 7 8 8 9 12 12
29 28 27 24 24 24 23 21 19 17 16 15 13 11 11 9 9 10 11 12 13 13 14 16 15 16 14 6 5 6 2 2 6 8 9 10 9 9 10 10 10 12 11 7 8 11 5 7 10 5 2 3 4 3 0 2 4 5 7 6 7 4 3 4 5 4 3 3 3 6 4 3 2 1 6 5 4 1 5 6 6 6 6 7 7 7 9 12
29 28 27 25 24 24 22 21 20 18 17 15 13 11 9 8 8 10 11 11 12 13 14 15 15 16 11 3 6 6 2 2 6 9 11 10 9 8 9 9 8 10 10 6 9 11 4 9 13 6 1 4 5 2 2 3 5 3 5 5 6 8 4 4 3 4 2 2 2 3 1 4 2 6 7 4 4 2 6 5 5 6 6 5 6 6 7 11
29 28 27 25 25 23 21 21 20 18 16 14 12 10 8 7 7 8 9 10 11 12 13 14 15 15 9 1 6 10 7 3 4 9 11 10 8 7 8 9 7 7 9 5 9 11 6 10 11 6 2 6 3 2 4 4 3 2 4 5 3 6 4 3 2 4 2 2 5 2 1 6 8 11 7 4 3 5 5 5 5 6 5 5 5 5 7 10
30 28 27 26 25 22 21 20 19 18 16 14 11 8 7 6 6 7 8 9 10 11 12 13 15 12 5 2 4 9 13 7 5 8 10 10 8 6 7 8 8 8 7 4 6 9 7 9 10 6 2 4 4 3 5 6 4 2 3 3 3 2 4 6 3 2 3 1 4 5 2 7 8 10 6 5 2 5 5 7 6 6 5 5 5 6 7 9
30 28 27 26 24 22 21 20 19 17 14 13 10 7 6 6 5 5 6 8 8 10 11 12 14 9 2 4 4 6 11 9 7 9 10 11 9 7 6 8 8 8 7 4 5 8 9 10 9 6 1 2 5 6 4 4 4 3 3 1 2 4 5 7 3 0 3 0 5 6 3 7 7 9 6 5 2 5 6 7 6 6 6 6 6 6 7 8
30 28 27 26 24 22 21 20 19 16 13 11 8 7 7 7 6 5 6 7 7 9 9 10 12 8 2 2 2 3 6 7 8 10 10 11 10 6 7 8 6 6 6 4 7 10 8 7 5 2 3 3 5 7 5 4 4 4 3 3 2 4 2 5 2 1 1 1 3 3 3 4 4 6 6 5 3 5 5 8 7 7 7 7 6 6 7 7
29 28 26 25 24 22 20 19 18 16 13 10 9 8 8 8 7 6 6 7 8 9 7 8 11 5 1 2 2 3 4 6 9 11 11 10 9 9 10 7 4 7 9 7 8 6 5 5 2 0 3 3 3 6 5 1 2 2 2 2 2 4 3 2 2 2 3 2 1 2 2 7 6 6 8 6 3 4 4 8 7 6 7 6 6 6 7 7
30 28 26 25 24 22 20 19 17 15 12 11 10 10 11 10 9 7 10 12 11 8 4 5 8 4 3 4 3 3 3 6 10 11 11 9 9 11 9 5 5 9 9 5 2 3 3 4 2 2 3 2 3 5 5 4 5 6 4 3 2 2 3 3 3 3 3 3 2 0 3 10 11 10 9 5 1 2 5 6 6 7 7 7 6 7 8 8
30 28 27 25 23 22 21 19 17 14 13 13 13 14 14 11 9 7 9 10 7 4 2 4 6 3 4 4 2 2 5 9 10 10 10 9 10 9 6 5 6 7 6 3 1 1 2 3 4 3 3 4 6 6 7 7 7 9 6 5 5 4 4 5 4 4 1 3 3 4 5 9 10 11 10 5 1 2 6 5 6 7 7 7 7 7 8 8
31 29 27 25 24 22 21 19 16 15 15 18 20 17 11 7 5 2 2 2 3 2 1 5 6 3 1 1 1 6 8 8 5 5 9 10 11 10 4 3 4 5 4 5 4 2 3 4 4 6 8 9 9 7 6 5 7 8 6 4 4 4 2 3 3 4 1 4 3 3 4 9 10 12 12 7 2 4 8 7 8 9 7 8 8 9 9 10
32 30 27 25 25 23 21 19 16 15 17 22 22 11 4 6 4 3 3 2 5 2 3 2 3 2 1 1 3 6 6 4 2 3 9 9 10 9 1 1 5 2 2 3 3 2 4 5 7 7 7 8 7 6 7 6 7 6 6 5 2 3 2 2 1 3 3 2 3 3 3 10 11 11 12 7 4 6 9 9 10 10 9 9 9 11 10 8
33 31 28 27 26 23 21 18 16 15 17 21 16 3 2 5 5 10 9 1 5 2 2 3 1 1 2 1 4 3 3 4 3 2 6 7 6 6 1 3 6 4 1 2 4 2 2 5 7 5 5 7 6 6 8 7 6 6 4 5 3 3 2 1 1 3 4 1 3 3 3 9 10 10 11 9 7 8 8 8 9 9 10 10 9 10 8 7
34 32 30 28 26 24 21 18 16 15 17 18 12 3 2 4 9 15 10 3 3 2 1 0 2 1 2 1 4 3 2 4 4 3 5 6 4 4 5 5 6 5 2 4 6 6 5 6 6 6 8 10 6 4 9 7 4 4 4 5 3 3 3 1 2 2 3 2 1 0 2 7 8 7 10 9 6 6 7 8 9 8 10 12 9 7 7 9
35 33 31 29 27 25 22 19 16 14 16 15 14 10 4 6 14 13 5 3 3 2 1 2 2 3 2 1 5 4 2 2 4 4 5 7 4 3 5 5 5 5 4 6 7 8 5 4 2 8 8 10 7 4 7 6 2 0 3 6 4 5 5 3 3 2 3 3 3 2 3 6 4 4 9 6 5 5 5 7 9 9 9 10 9 8 8 9
35 34 32 30 28 26 23 19 13 13 14 11 16 16 5 6 12 8 3 3 1 1 1 2 1 3 4 3 3 4 2 1 2 3 4 6 6 4 3 3 3 5 5 5 7 5 4 2 5 9 6 7 8 5 6 6 4 2 4 6 7 8 7 4 5 5 4 3 3 3 2 6 5 4 8 5 7 7 5 6 10 10 7 7 8 9 9 9
36 34 34 31 30 29 21 12 11 13 11 9 18 20 8 6 9 5 3 4 2 1 2 3 2 4 7 3 2 4 3 1 1 1 3 5 4 3 3 1 1 3 5 5 4 3 1 2 5 7 7 7 7 6 6 6 6 2 3 5 7 8 9 8 7 5 2 2 2 3 3 5 6 5 7 5 7 10 8 7 10 9 7 6 7 8 7 7
37 35 36 33 32 31 17 7 13 15 6 8 20 20 11 8 6 2 4 5 3 3 4 2 1 5 7 2 3 6 2 3 1 3 2 3 1 3 3 4 1 2 3 4 2 2 2 4 5 6 6 7 7 5 6 7 8 3 2 6 9 9 9 8 7 5 2 3 3 4 3 2 5 6 6 5 6 10 9 9 10 7 7 7 7 8 8 7
38 37 37 35 34 30 16 11 17 15 4 4 17 19 11 8 4 1 4 3 2 2 3 2 1 5 4 2 3 4 2 2 4 1 2 3 1 3 3 5 5 4 1 4 4 3 2 4 5 7 5 5 5 4 5 8 6 2 2 6 8 8 8 6 6 4 1 1 3 4 2 1 6 7 6 5 3 7 9 10 9 7 7 8 7 8 8 7
40 40 37 36 35 26 16 13 15 16 11 4 13 20 12 7 3 3 4 2 1 2 1 1 3 3 2 2 2 2 2 1 2 2 3 4 2 3 3 4 6 8 3 3 5 2 1 4 6 7 5 5 3 1 1 4 4 3 5 8 7 7 7 6 6 4 3 2 4 5 1 1 5 6 4 2 1 6 9 9 7 7 7 7 7 8 7 6
41 39 38 37 32 22 15 11 10 15 14 6 14 19 10 4 3 4 3 4 2 1 0 2 3 3 6 6 1 3 2 1 1 1 3 1 3 6 2 2 6 7 4 6 4 1 2 1 1 3 3 4 4 3 2 2 6 8 6 7 8 6 6 5 3 4 4 2 6 5 2 0 3 6 4 3 4 6 5 4 6 6 7 6 6 6 6 6
39 37 39 37 29 22 15 8 9 13 10 10 17 15 7 3 2 4 5 3 2 2 1 1 2 5 11 11 5 0 2 1 0 3 3 1 3 4 2 1 4 5 3 3 3 4 4 3 1 0 1 4 6 5 5 4 5 7 4 6 6 4 5 4 5 4 2 5 6 4 2 1 3 6 5 4 6 6 5 3 5 6 7 7 6 6 6 6
36 36 38 34 27 24 14 6 12 15 10 14 17 9 4 3 1 5 4 1 3 3 4 5 4 7 13 13 8 5 3 1 1 4 5 3 3 3 3 3 4 3 1 3 1 3 3 1 1 1 1 3 5 6 5 5 5 5 5 7 5 2 3 2 3 1 3 5 3 2 1 2 6 8 8 10 10 7 7 7 7 7 7 8 7 7 6 5
33 36 35 29 25 23 16 9 14 17 13 15 12 4 3 5 7 9 5 3 3 3 5 6 5 7 13 11 6 5 3 2 4 3 2 3 4 3 2 2 5 5 3 4 4 2 1 4 2 1 1 2 4 6 3 2 0 4 6 6 5 3 2 2 3 2 3 4 2 3 2 2 5 5 9 14 10 4 6 7 7 7 8 8 8 8 7 7
32 35 32 25 22 20 16 12 14 19 16 11 8 4 5 6 9 8 6 5 3 1 3 6 6 6 10 9 6 6 4 1 4 4 2 4 5 4 3 3 3 5 4 3 3 5 4 4 3 2 2 1 2 4 5 6 4 2 3 5 6 5 5 4 4 3 4 2 2 3 2 3 3 2 6 10 7 4 5 7 5 6 8 7 7 8 7 7
32 34 29 24 21 19 18 13 15 21 16 8 5 6 8 10 8 6 7 5 2 1 3 5 9 8 7 3 2 6 4 1 3 4 3 6 6 7 7 6 6 4 6 5 3 2 4 4 3 3 3 1 2 2 2 6 4 2 1 5 3 5 5 4 3 5 3 0 2 2 3 4 4 6 8 6 6 7 6 4 3 6 7 5 6 7 5 6
33 30 25 23 21 21 19 13 16 22 13 6 7 8 9 10 6 5 6 4 3 5 8 5 5 6 6 2 1 5 2 2 5 3 3 5 4 7 7 6 7 6 5 6 3 2 3 3 4 3 2 2 2 2 1 3 3 2 2 3 4 4 7 6 2 0 3 1 3 1 3 5 4 7 9 5 6 8 5 3 3 6 6 4 5 6 5 6
30 24 16 17 21 23 20 14 17 19 8 4 9 10 8 8 4 4 4 5 4 6 10 5 2 4 7 4 4 8 4 3 4 3 4 5 3 6 8 4 6 9 7 4 2 4 5 1 3 2 2 2 1 2 4 3 3 5 3 5 4 2 4 5 2 3 3 2 4 1 3 5 2 4 7 7 6 9 7 5 4 5 5 4 6 6 5 7
23 17 8 14 22 23 20 16 16 14 4 3 11 11 5 3 3 4 5 6 5 6 7 6 2 3 5 6 6 9 8 5 6 4 4 4 4 7 11 6 5 10 8 3 2 2 5 3 3 2 1 3 3 3 3 3 3 4 4 3 4 3 2 2 3 2 1 2 4 4 3 3 4 5 4 4 6 9 9 7 5 6 6 4 4 5 6 5
18 10 4 13 23 22 21 18 14 8 3 6 13 11 3 2 2 3 6 8 6 5 6 5 2 3 4 5 5 7 7 6 8 6 4 5 4 6 11 7 3 7 8 5 4 3 4 4 1 1 1 2 4 2 4 2 3 3 2 2 3 3 4 2 3 4 3 3 3 4 4 3 6 6 6 8 9 8 8 6 6 7 6 4 4 5 5 5
11 4 3 16 25 23 23 17 8 5 5 9 11 6 2 3 1 3 6 7 4 3 5 4 4 4 4 3 3 5 5 5 8 6 4 5 4 4 7 8 5 7 5 4 3 3 3 3 3 2 3 1 1 2 5 6 3 2 3 3 2 2 2 2 1 3 4 4 3 2 3 6 6 4 8 10 8 7 7 5 6 6 5 6 6 6 5 4
3 2 4 17 28 26 21 11 4 7 7 8 8 3 2 3 3 3 4 3 3 2 3 5 6 5 6 5 3 5 4 3 6 6 3 5 5 4 6 7 9 10 6 4 3 4 2 3 5 2 0 3 3 3 3 4 4 4 4 5 6 4 4 3 2 1 3 3 4 4 3 8 6 4 7 8 6 6 6 5 5 6 5 6 6 5 6 5
2 2 4 19 32 27 16 6 4 6 6 5 4 3 2 2 4 5 4 2 3 2 3 4 4 3 5 5 4 6 6 4 5 5 4 6 7 6 4 4 9 12 10 5 2 2 3 4 4 2 3 4 3 2 1 3 1 3 2 3 5 4 5 6 5 4 2 2 2 4 2 8 6 4 5 5 5 6 5 4 5 6 4 5 5 6 6 6
1 2 4 20 34 24 10 6 6 5 5 4 2 2 2 2 2 3 4 3 2 2 2 2 3 3 3 3 5 8 8 5 6 8 6 5 6 5 4 6 10 11 8 4 3 2 2 4 4 0 3 3 3 2 1 1 1 1 3 4 5 3 3 5 5 4 4 4 3 3 2 7 6 3 4 5 5 6 5 5 6 6 3 4 5 5 5 6
1 2 3 13 28 21 8 6 9 10 6 0 2 3 2 2 2 3 5 5 3 4 4 3 3 3 3 4 5 9 11 6 6 9 6 3 4 3 6 10 10 10 7 4 6 6 3 3 4 3 1 3 3 2 2 3 2 4 4 3 5 4 6 5 2 4 2 5 7 5 5 8 6 4 1 2 3 5 7 6 5 5 4 4 5 4 4 5
1 1 3 3 11 11 5 3 6 9 5 3 2 5 2 1 1 2 4 3 1 3 4 3 3 4 3 4 4 5 9 6 3 6 3 1 3 1 5 11 11 9 6 3 7 7 4 4 5 6 6 5 5 5 4 4 3 2 2 5 7 7 9 5 3 4 3 5 7 7 6 6 5 6 3 2 3 4 6 6 4 5 5 5 5 5 5 5
1 0 0 2 2 0 1 1 1 4 6 5 4 4 6 5 1 1 2 2 1 2 1 0 3 5 4 5 5 4 9 6 2 3 5 5 3 2 3 9 11 8 5 8 10 7 3 2 5 8 10 11 11 8 4 5 5 4 4 7 9 8 8 6 4 4 6 2 3 8 8 3 5 6 4 5 5 5 6 6 6 6 6 6 6 6 5 5
1 1 2 1 1 2 1 2 1 2 4 8 5 4 9 9 3 0 1 2 1 2 1 2 3 6 6 8 7 6 10 9 3 4 7 6 3 2 1 3 6 5 5 8 8 6 4 4 8 10 13 13 10 7 3 6 8 9 9 9 10 9 9 8 7 9 6 6 6 13 9 8 9 8 8 8 7 7 7 8 8 6 7 6 5 6 6 5
1 1 2 1 1 2 2 2 3 3 3 7 3 2 9 10 6 4 3 0 1 1 2 1 3 9 11 12 9 6 7 8 5 4 5 4 3 1 2 1 2 2 4 4 3 4 5 7 8 9 14 13 5 4 5 7 7 8 11 13 13 13 13 13 15 13 9 7 16 15 11 14 13 9 10 11 9 10 10 8 6 5 6 6 6 7 6 5
1 1 0 1 1 1 1 4 7 4 3 7 3 1 7 11 12 7 2 3 1 2 3 5 6 9 11 12 10 7 7 8 7 7 5 5 5 4 3 1 1 1 3 4 2 2 3 5 4 7 11 12 4 3 4 7 6 5 9 13 14 15 17 17 18 17 13 14 21 10 6 12 12 9 11 11 9 8 5 3 4 5 7 7 6 7 7 7
1 0 1 2 2 1 0 4 9 6 3 5 6 3 4 9 14 10 2 4 4 2 3 6 6 5 6 9 9 9 11 13 12 10 7 6 4 3 4 4 2 2 2 4 2 1 3 2 1 5 5 8 3 3 2 3 5 4 6 8 11 13 15 16 18 18 14 16 19 7 4 12 8 8 9 8 5 4 3 6 7 7 8 8 7 8 8 8
1 2 1 2 2 3 2 1 5 7 4 5 7 6 5 8 11 10 6 3 5 4 4 6 5 3 2 6 9 10 11 13 12 11 13 11 8 7 6 5 6 6 3 4 3 2 4 2 3 5 3 6 4 6 5 6 5 3 2 6 12 13 14 16 17 15 12 15 14 7 9 13 5 8 7 6 7 7 8 9 8 7 9 8 7 9 9 9
1 3 2 1 1 4 4 1 2 5 5 6 7 7 8 6 5 6 6 2 2 4 5 7 7 4 3 6 12 11 9 9 7 7 9 6 4 7 6 6 11 12 8 6 4 3 6 5 2 4 5 5 3 4 7 7 4 2 4 11 17 17 17 15 12 11 12 12 10 10 13 10 5 9 9 8 10 10 10 10 8 9 11 9 8 9 9 10
Wind_Direction
187 187 191 195 189 187 186 186 190 192 194 194 194 194 194 195 193 195 199 200 203 210 210 206 211 216 215 219 224 231 238 243 259 257 240 249 256 256 259 265 266 237 229 243 225 197 161 93 124 103 106 77 11 331 27 18 57 61 80 101 153 177 202 188 180 193 173 192 199 198 172 155 186 211 175 82 50 66 74 325 317 314 270 269 281 301 166 165
187 186 190 191 186 185 184 186 189 189 190 188 189 190 191 192 190 192 195 196 198 207 208 202 209 213 211 215 220 226 229 249 272 257 249 254 257 256 259 258 253 230 215 222 214 192 159 159 148 101 66 59 356 356 45 356 58 87 109 114 218 199 204 200 177 184 181 174 168 168 166 164 187 170 147 179 295 49 133 275 337 312 247 325 312 160 155 163
187 185 188 188 184 183 183 186 186 184 184 183 186 187 189 189 188 190 193 193 194 204 209 201 204 206 210 213 212 213 209 281 295 263 260 257 250 249 253 246 236 223 210 216 215 198 180 172 147 115 63 66 341 13 70 4 40 138 118 113 240 213 213 226 188 191 215 172 145 152 155 151 211 162 154 183 165 113 191 219 250 252 236 231 118 148 154 163
185 183 188 186 181 183 185 185 183 181 182 183 185 186 188 188 186 188 190 190 191 202 209 203 200 201 206 207 200 190 144 24 286 253 260 257 246 241 243 237 226 219 213 213 203 186 162 142 126 98 79 71 335 12 106 337 257 140 122 166 229 201 175 219 204 210 218 176 143 135 125 143 234 172 152 148 134 260 242 221 198 209 202 168 171 162 161 167
184 184 187 184 179 183 186 183 180 179 181 183 183 185 190 189 185 185 187 187 190 197 204 203 199 200 203 195 184 171 121 36 277 244 243 243 237 227 229 227 215 210 201 189 176 156 138 121 95 67 75 98 354 42 135 303 90 109 130 179 187 154 96 254 234 216 179 122 117 124 144 173 176 131 151 152 166 233 231 223 209 202 179 162 168 168 167 172
183 185 185 182 180 183 183 179 179 178 181 182 179 186 196 192 181 182 185 184 187 192 196 197 196 200 201 186 173 171 152 182 306 333 233 219 208 207 211 213 202 197 186 174 164 144 124 90 84 99 74 82 120 123 174 310 45 125 246 126 173 182 94 319 284 230 166 125 139 155 165 146 124 151 183 175 202 218 211 242 219 187 159 156 158 162 168 177
183 183 182 181 182 183 180 178 179 179 180 181 181 190 197 189 181 183 183 181 184 185 187 189 192 198 195 173 159 165 197 247 313 6 235 194 187 193 198 202 193 188 182 169 158 139 119 97 115 144 92 87 158 153 161 34 45 96 163 37 136 164 73 309 282 215 169 148 171 164 124 129 160 174 112 217 232 230 266 311 186 149 139 148 156 168 178 183
182 182 181 181 183 182 180 180 180 181 181 181 183 190 189 183 183 182 178 179 179 179 181 182 188 192 184 166 143 126 254 250 291 357 206 182 178 184 188 192 186 186 182 180 172 151 137 125 151 151 98 169 165 131 145 88 46 81 151 169 105 113 334 330 60 98 123 129 140 120 107 221 203 160 142 239 247 248 268 58 112 130 135 157 170 180 185 188
182 182 183 183 183 182 181 182 180 181 181 179 182 185 182 182 183 179 176 176 174 176 176 177 185 183 177 165 123 150 230 231 241 230 188 181 179 179 184 188 186 185 180 189 185 160 161 161 180 176 144 184 139 124 165 127 197 155 131 127 93 25 325 5 74 59 88 85 67 121 88 323 229 176 260 250 254 239 110 88 111 131 145 176 183 188 188 191
182 183 185 183 181 182 184 183 181 179 178 181 183 181 181 184 183 179 177 175 173 175 175 176 180 175 172 156 122 194 233 223 225 221 193 184 183 182 184 189 188 186 176 178 181 166 176 190 181 164 135 135 118 117 161 154 178 138 116 102 77 26 321 29 89 26 34 60 45 138 137 317 300 327 260 266 317 127 112 100 129 148 171 192 192 200 197 200
183 184 184 183 181 183 185 183 180 177 178 183 183 179 181 184 183 179 176 176 175 174 175 174 174 173 169 154 169 203 219 194 210 201 192 190 189 192 193 195 191 190 179 164 185 184 186 186 161 129 130 155 125 89 356 147 113 116 122 91 17 4 12 34 74 12 3 85 47 126 137 316 358 296 232 258 326 215 140 134 158 174 196 203 201 209 207 215
185 185 184 183 182 184 185 182 178 176 181 186 183 179 179 181 181 179 176 175 175 174 174 172 172 172 158 152 217 215 209 206 208 193 191 192 191 198 197 196 196 198 193 176 196 195 184 175 148 107 222 152 126 115 143 107 89 108 105 92 353 4 23 4 43 329 359 104 332 99 107 297 235 233 241 288 330 104 135 160 185 202 214 212 211 216 216 224
185 186 184 184 184 184 184 182 178 176 180 183 183 179 176 180 179 178 178 174 174 174 172 170 171 167 150 176 232 222 231 244 215 201 193 191 194 199 195 192 193 205 210 207 199 191 182 176 147 110 126 113 118 174 122 67 64 111 65 93 50 20 348 317 359 327 67 87 325 88 207 274 248 251 261 328 353 104 146 202 208 220 233 232 221 222 227 226
185 186 185 185 184 182 182 180 176 175 178 182 182 177 171 173 175 180 179 173 175 174 169 166 166 157 146 234 234 221 229 235 231 211 195 193 189 184 187 186 189 198 206 217 197 184 180 169 132 100 98 93 124 122 62 26 27 93 75 62 77 111 268 299 333 347 121 98 359 102 191 271 261 269 285 323 334 144 196 229 222 227 239 242 232 231 236 230
185 186 185 185 183 181 182 179 175 174 177 181 178 170 163 158 166 177 176 174 174 172 163 157 159 144 100 268 252 220 221 224 227 214 199 194 183 174 183 182 187 193 196 212 178 161 157 146 112 92 83 23 100 98 48 19 19 44 111 327 1 161 259 307 318 98 147 185 34 104 208 274 266 269 287 331 38 159 214 240 239 239 241 246 243 236 241 244
184 184 185 185 183 181 181 179 177 175 174 178 172 161 154 148 154 161 168 170 165 164 154 152 160 145 98 229 222 206 206 208 210 205 197 191 187 178 164 158 154 159 168 158 137 136 128 111 85 102 116 64 96 104 72 45 4 358 105 178 223 166 250 310 303 340 108 129 21 87 210 272 284 268 284 333 64 139 222 251 253 251 251 251 248 245 245 254
182 183 184 183 183 182 179 179 178 177 176 171 159 151 146 142 144 143 148 145 142 146 139 154 161 144 30 185 186 213 194 186 188 187 185 185 188 172 148 130 105 118 120 117 124 115 74 59 57 184 70 73 126 110 93 67 264 287 63 131 204 176 182 278 267 311 41 110 240 28 235 250 269 278 288 319 63 128 221 252 264 263 263 258 251 255 250 250
181 182 182 182 184 181 179 179 177 179 175 156 146 142 134 130 127 127 135 130 120 113 102 149 148 134 248 211 194 206 170 164 169 168 171 171 171 165 148 119 112 114 103 95 98 66 32 29 67 110 50 70 148 126 147 199 192 186 177 149 173 193 191 231 240 262 30 87 206 290 264 261 275 285 289 298 115 175 241 253 270 270 267 265 257 254 249 248
180 180 181 182 182 181 181 180 178 178 163 145 140 130 117 105 97 108 133 131 122 121 158 179 156 152 214 213 186 129 122 138 150 155 157 154 155 154 128 107 111 105 109 123 139 110 81 52 71 132 155 174 186 173 177 191 167 167 174 147 152 174 220 236 244 268 103 121 231 232 243 270 281 285 288 285 206 256 274 278 274 266 262 261 255 251 249 246
180 179 180 181 181 181 182 180 180 176 160 146 141 127 112 108 95 101 151 154 191 184 178 187 177 150 85 278 123 120 121 123 133 152 151 152 150 136 79 68 88 75 125 154 167 159 101 127 179 189 186 187 188 172 148 150 138 137 131 116 152 169 213 241 251 302 71 142 250 252 258 277 275 276 278 277 293 282 276 276 269 261 256 252 248 247 243 241
180 178 178 180 180 181 181 181 180 175 163 155 150 134 145 165 141 167 166 301 253 239 349 261 184 111 56 196 159 139 122 91 58 128 152 156 147 144 71 43 127 122 190 158 142 95 98 170 210 210 188 171 160 136 109 102 97 107 137 143 169 192 207 230 208 320 358 163 262 1 319 275 267 272 275 276 283 263 250 247 254 254 252 251 247 249 249 252
181 179 177 178 179 178 179 182 180 177 170 166 165 164 232 186 140 152 142 72 249 205 12 327 51 31 351 143 183 166 80 90 92 140 165 148 138 167 181 87 143 167 249 121 113 110 152 213 221 204 157 111 88 91 97 93 95 95 118 140 175 217 202 299 312 344 13 152 261 352 331 274 266 268 270 267 256 248 241 236 245 250 253 254 245 248 259 266
182 180 176 177 177 174 177 180 177 179 179 177 185 209 205 179 145 149 137 97 206 188 46 40 141 170 357 32 193 167 86 138 157 214 193 147 139 178 140 120 148 143 155 173 155 155 187 245 233 174 139 116 91 77 96 86 85 100 116 137 183 217 157 194 244 326 22 68 213 254 291 281 280 281 273 268 263 265 269 261 256 246 245 256 257 252 255 256
181 180 177 175 174 173 175 174 168 182 189 190 203 200 157 148 155 153 120 74 174 207 232 194 155 169 159 154 182 154 117 154 157 191 190 149 138 155 147 145 138 136 184 188 163 165 203 274 182 140 141 139 134 132 124 113 93 197 172 153 169 189 173 185 178 113 20 22 53 56 317 297 299 291 271 288 338 301 296 302 281 258 246 263 278 266 249 248
180 180 178 174 174 172 168 163 163 183 189 199 211 202 171 146 165 163 90 76 202 311 297 232 145 185 180 136 163 164 136 133 176 195 181 153 141 134 149 142 136 174 189 147 138 174 233 299 123 134 144 142 139 167 178 146 132 232 217 181 174 170 156 138 126 94 47 356 6 31 314 289 315 297 259 297 346 307 309 319 283 274 278 275 272 267 255 250
180 180 177 174 173 167 158 157 173 177 176 212 210 198 197 178 171 175 93 64 282 252 165 184 127 179 180 139 150 144 104 252 263 104 133 150 147 112 135 126 61 179 174 135 134 181 214 36 94 133 149 144 143 182 203 150 127 187 222 169 150 138 129 135 135 107 110 217 337 52 164 255 317 305 267 312 332 299 302 291 272 278 290 274 260 265 263 262
180 180 176 175 171 165 156 146 166 165 157 226 210 199 205 196 179 198 83 47 288 192 137 179 34 164 174 170 155 136 152 234 127 81 92 131 158 53 132 178 112 148 164 129 155 230 128 81 77 111 127 138 153 192 203 150 130 194 230 129 130 126 132 142 123 104 164 202 335 22 121 217 299 275 278 333 323 302 304 282 276 288 283 274 270 270 269 273
180 178 176 175 172 171 169 148 154 167 167 206 201 198 199 191 194 176 100 85 259 149 132 213 127 139 147 25 89 116 209 221 124 176 341 72 124 41 111 187 154 137 117 124 182 256 101 137 157 139 128 155 183 220 193 137 115 239 204 123 125 121 124 121 96 90 79 82 300 314 76 193 268 270 307 353 327 298 293 273 280 299 289 286 287 282 279 277
178 176 174 171 169 173 179 164 159 179 192 186 188 190 184 180 191 79 102 177 220 83 104 144 124 127 100 83 87 53 12 30 113 236 341 71 93 49 123 185 133 118 59 90 165 225 60 183 183 146 147 181 187 309 178 123 105 180 147 102 84 77 81 78 88 100 54 48 242 264 7 208 266 280 306 2 286 261 265 269 278 284 283 285 288 289 290 291
174 173 171 166 164 165 162 162 171 179 187 187 174 176 165 152 164 119 164 214 155 102 49 131 172 159 131 139 164 356 52 36 349 30 19 71 36 30 104 146 98 107 43 39 94 264 317 280 168 117 146 169 136 88 52 88 125 140 121 82 67 42 39 49 55 83 65 307 252 260 301 197 271 277 248 203 214 215 224 281 294 292 300 298 295 296 295 298
172 172 170 167 166 163 148 152 188 175 168 165 158 158 144 89 85 155 194 218 122 107 94 148 198 144 144 159 178 216 90 24 313 126 129 160 44 48 119 117 76 84 50 45 44 339 357 26 15 113 134 127 103 73 38 37 94 107 94 96 88 13 13 27 0 44 104 255 261 277 301 161 224 259 248 240 251 221 192 228 265 281 303 305 310 307 294 291
170 171 171 170 169 168 162 178 187 169 155 155 148 140 143 119 166 202 199 173 158 184 175 180 206 173 164 169 171 168 136 81 198 154 146 146 147 162 169 183 160 108 158 187 136 359 14 20 300 330 202 155 114 79 36 356 19 75 102 108 102 20 15 4 312 339 209 244 266 285 267 205 236 248 257 267 268 238 212 222 232 247 275 290 303 306 296 294
170 171 170 170 170 170 176 186 178 172 165 151 137 100 107 150 203 208 193 185 196 188 158 162 184 174 163 162 170 163 133 174 192 164 134 121 152 202 274 212 153 126 177 179 124 103 313 302 301 85 254 217 135 121 128 258 349 125 139 129 126 119 100 227 260 285 252 257 297 284 237 251 273 262 248 253 257 224 210 222 224 234 255 272 287 295 294 295
171 170 168 170 174 175 182 184 177 178 169 139 126 120 131 180 208 191 180 212 234 53 123 141 128 143 162 163 174 168 143 221 181 137 126 125 143 198 240 236 171 106 112 142 148 162 184 255 244 173 242 276 140 155 154 145 133 170 166 129 146 157 151 198 212 201 232 263 304 288 236 200 226 259 237 240 266 288 242 232 228 241 254 263 280 286 285 293
170 170 168 170 178 182 184 185 177 176 165 124 136 162 168 198 209 184 185 199 204 116 99 127 126 138 176 166 160 177 154 181 179 125 138 162 172 190 191 206 204 142 124 157 199 165 172 238 268 283 273 121 129 223 124 108 115 239 123 101 159 183 139 140 178 173 167 245 269 244 238 213 215 278 273 256 284 288 260 244 221 239 264 283 283 282 291 298
167 168 167 170 181 185 182 180 171 170 160 123 154 181 198 205 189 174 183 152 154 146 114 115 132 147 180 155 146 198 155 110 165 152 175 187 194 193 191 206 196 180 165 160 170 163 165 254 312 332 330 63 132 223 52 101 163 160 113 157 209 169 113 117 185 56 84 206 258 215 258 289 322 295 294 317 305 293 291 282 229 239 277 302 281 285 302 290
162 160 160 167 178 183 181 176 166 164 152 130 173 191 206 208 165 128 153 136 140 133 122 142 184 149 174 170 178 192 173 120 162 175 190 187 210 194 194 224 193 189 198 160 168 198 157 158 336 29 49 5 210 151 51 44 118 119 168 200 184 125 94 111 154 12 47 235 274 301 246 288 324 280 315 344 298 280 281 278 278 279 281 281 282 288 277 272
153 150 147 166 176 182 183 176 161 156 125 146 196 207 199 196 177 123 127 133 125 119 133 166 167 128 175 184 187 183 171 165 175 181 178 187 245 202 180 198 198 191 200 164 171 210 131 127 323 35 137 310 350 94 82 23 64 121 185 172 115 146 173 103 143 162 140 229 280 305 283 264 214 226 300 305 239 250 267 279 292 276 253 249 284 279 264 280
143 143 145 176 181 184 179 167 151 147 150 180 201 215 183 148 215 182 148 137 130 145 160 180 162 126 169 178 172 176 180 177 170 178 185 186 242 218 179 184 192 188 189 156 163 191 115 134 234 336 258 297 9 87 178 201 20 40 95 94 71 131 162 158 147 162 177 196 250 306 324 264 226 213 216 225 222 225 247 269 272 255 232 198 214 245 266 296
141 139 155 178 184 183 167 152 137 157 194 196 197 205 159 145 259 239 176 140 131 171 169 181 174 142 153 165 154 175 185 170 168 187 212 188 207 235 199 186 167 168 159 95 126 162 92 133 183 322 334 210 175 222 195 178 160 103 117 158 173 71 113 161 90 110 140 157 183 258 301 265 248 210 198 216 224 210 209 231 256 252 220 205 217 238 258 270
141 108 149 176 182 176 158 141 159 186 199 204 189 165 168 164 133 189 196 117 104 163 144 154 162 150 152 154 162 177 158 142 175 190 220 207 203 225 217 187 160 151 133 91 136 166 141 145 155 139 346 189 219 268 222 186 170 151 169 188 177 142 121 146 245 257 123 142 167 168 258 266 254 209 204 217 225 223 213 216 259 273 243 228 235 235 233 236
132 103 157 176 176 170 157 159 196 193 211 216 178 128 139 139 125 163 184 90 93 113 95 120 137 146 158 154 156 163 152 154 182 187 210 218 209 219 228 173 149 154 154 147 166 169 128 108 113 145 209 209 244 300 239 223 184 117 193 204 164 155 140 151 204 222 125 128 146 120 251 269 261 220 213 224 238 253 247 227 259 275 242 215 215 216 226 237
71 91 139 171 173 168 157 178 192 207 234 235 174 104 75 83 108 152 177 176 154 142 124 137 153 162 173 156 142 157 167 175 188 197 210 215 217 224 191 150 145 155 155 144 159 165 123 112 111 51 300 311 321 352 29 334 80 162 237 197 160 179 150 146 182 170 141 173 152 96 270 267 274 264 221 227 247 268 262 228 234 250 234 215 219 218 231 245
37 80 80 165 174 176 175 184 194 204 210 158 146 159 57 56 121 147 181 192 183 153 149 166 186 178 167 150 144 169 181 180 196 208 206 196 223 203 156 161 160 163 176 184 175 176 186 163 129 113 42 353 350 358 340 309 220 209 225 167 150 140 106 106 125 105 139 206 161 144 239 254 274 314 310 247 282 286 262 234 214 220 230 252 262 268 265 264
63 60 23 134 172 184 199 192 192 196 175 83 133 175 166 171 133 133 174 184 168 154 163 190 177 132 127 142 121 164 187 180 177 201 198 210 251 264 167 178 178 182 194 146 136 155 183 178 148 156 177 189 200 205 222 224 196 201 189 153 167 161 141 148 128 112 211 226 158 172 234 258 291 323 343 309 299 280 256 246 232 227 239 263 280 287 280 277
124 184 8 22 36 110 283 14 112 180 171 150 163 178 179 192 228 35 151 179 182 131 120 321 127 105 112 151 131 152 203 207 114 150 190 201 221 287 208 183 187 195 159 122 137 144 137 188 189 191 200 204 206 207 174 126 139 183 182 162 174 174 148 130 113 162 202 162 159 224 232 231 264 272 265 245 237 233 231 231 237 242 246 254 262 269 274 278
172 172 162 174 34 113 18 341 114 139 170 174 176 174 183 193 205 131 188 221 202 114 63 18 139 158 166 162 154 172 200 205 164 156 193 198 205 316 348 171 198 198 131 139 164 130 102 210 210 201 217 223 211 201 160 132 163 186 172 163 175 171 152 151 186 207 164 108 243 242 219 215 235 226 221 223 217 226 234 227 225 229 236 242 245 253 269 294
171 121 149 222 265 183 202 195 153 99 137 171 175 157 179 190 191 184 192 194 31 149 166 169 206 194 178 164 164 175 186 194 203 196 183 168 166 133 50 40 246 213 123 143 177 113 131 212 210 193 222 234 204 159 175 163 169 176 169 174 177 169 169 183 208 212 157 165 240 234 192 214 228 205 210 219 206 212 222 221 223 233 246 249 239 243 269 320
78 88 126 23 8 227 173 139 141 134 148 165 186 161 168 185 197 199 146 100 212 259 180 192 221 207 185 170 165 167 173 183 207 216 184 155 163 150 123 148 255 219 122 129 158 149 159 218 206 174 221 243 216 142 189 171 159 169 179 182 174 173 185 194 211 217 194 210 237 225 174 231 231 192 208 220 208 210 224 259 264 251 256 265 271 289 317 330
58 66 117 113 101 85 46 135 150 163 164 169 197 198 157 186 200 205 179 143 185 238 194 200 212 195 185 185 181 188 191 187 196 201 171 146 162 166 163 185 173 107 133 145 156 205 194 235 142 128 213 255 221 153 174 145 150 169 178 181 174 178 194 204 217 221 210 226 241 239 278 270 240 180 209 235 232 231 256 266 258 248 259 284 305 307 306 295
7 336 4 127 132 145 162 161 158 168 174 186 195 185 180 199 197 198 215 183 166 185 185 181 168 106 120 196 208 216 206 196 198 190 170 163 177 188 190 180 152 136 158 173 151 146 181 220 40 96 187 258 228 181 158 91 81 88 128 176 181 186 199 209 218 216 205 222 236 239 262 265 223 162 194 238 246 247 253 258 266 273 272 276 273 265 263 264
16 332 331 80 116 152 158 139 166 179 187 192 191 182 187 191 156 171 210 226 159 194 180 161 161 140 128 199 221 227 207 196 201 183 172 164 157 179 187 171 159 156 161 174 168 152 167 170 110 137 188 257 285 172 144 103 82 261 223 195 191 197 206 212 223 226 212 211 213 218 234 236 160 152 180 204 223 233 240 241 245 254 258 256 249 248 251 254